When you browse on this site, cookies collect data to enhance your experience and personalize the content and advertising you see.
Visit our Privacy Policy to learn more. By continuing to use the site, you agree to this use of cookies and data.
  • In Schweiz
  • Länderverzeichnis
  • Für 7 Tage
  • Wassertemperatur
  • Satellitenkarten
  • Wetterkarte
  • Widgets
  • user-avatar
    Anmelden

    Stündliche Wetter Tomashhorod

    Heute, 20 April, Samstag

    Zeit Temperatur Niederschläge Wind Luftdruck Luftfeuchtigkeit
    00:00 +8°C° 0 mm 1 m/S 756 mmHg 59%
    01:00 +8°C° 0 mm 1 m/S 756 mmHg 61%
    02:00 +8°C° 0 mm 1 m/S 756 mmHg 62%
    03:00 +7°C° 0 mm 1 m/S 756 mmHg 65%
    04:00 +7°C° 0 mm 1 m/S 755 mmHg 67%
    05:00 +6°C° 0 mm 1 m/S 755 mmHg 69%
    06:00 +8°C° 0 mm 1 m/S 755 mmHg 63%
    07:00 +10°C° 0 mm 1 m/S 755 mmHg 57%
    08:00 +11°C° 0 mm 1 m/S 755 mmHg 51%
    09:00 +13°C° 0 mm 2 m/S 755 mmHg 46%
    10:00 +14°C° 0 mm 2 m/S 755 mmHg 41%
    11:00 +16°C° 0 mm 2 m/S 754 mmHg 36%
    12:00 +16°C° 0 mm 2 m/S 754 mmHg 35%
    13:00 +17°C° 0 mm 2 m/S 754 mmHg 34%
    14:00 +17°C° 0 mm 2 m/S 753 mmHg 33%
    15:00 +16°C° 0 mm 2 m/S 753 mmHg 36%
    16:00 +16°C° 0 mm 2 m/S 752 mmHg 39%
    17:00 +16°C° 0 mm 2 m/S 752 mmHg 43%
    18:00 +14°C° 0.1 mm 2 m/S 752 mmHg 48%
    19:00 +13°C° 0.1 mm 2 m/S 752 mmHg 53%
    20:00 +12°C° 0.1 mm 1 m/S 752 mmHg 58%
    21:00 +11°C° 0 mm 1 m/S 751 mmHg 61%
    22:00 +11°C° 0 mm 1 m/S 751 mmHg 63%
    23:00 +10°C° 0 mm 1 m/S 751 mmHg 66%

    Morgen, 21 April, Sonntag

    Zeit Temperatur Niederschläge Wind Luftdruck Luftfeuchtigkeit
    00:00 +9°C° 0 mm 1 m/S 751 mmHg 67%
    01:00 +9°C° 0 mm 1 m/S 750 mmHg 69%
    02:00 +8°C° 0 mm 1 m/S 750 mmHg 71%
    03:00 +8°C° 0 mm 1 m/S 750 mmHg 73%
    04:00 +7°C° 0 mm 1 m/S 750 mmHg 76%
    05:00 +6°C° 0 mm 1 m/S 750 mmHg 78%
    06:00 +8°C° 0 mm 1 m/S 750 mmHg 73%
    07:00 +10°C° 0 mm 1 m/S 750 mmHg 67%
    08:00 +12°C° 0 mm 1 m/S 750 mmHg 62%
    09:00 +12°C° 0 mm 0 m/S 750 mmHg 56%
    10:00 +14°C° 0 mm 0 m/S 749 mmHg 50%
    11:00 +16°C° 0 mm 0 m/S 749 mmHg 44%
    12:00 +18°C° 0.3 mm 1 m/S 749 mmHg 44%
    13:00 +17°C° 0.3 mm 2 m/S 749 mmHg 44%
    14:00 +16°C° 0.3 mm 3 m/S 749 mmHg 43%
    15:00 +16°C° 0.9 mm 3 m/S 749 mmHg 48%
    16:00 +15°C° 0.9 mm 2 m/S 749 mmHg 52%
    17:00 +15°C° 0.9 mm 2 m/S 748 mmHg 56%
    18:00 +13°C° 0.2 mm 3 m/S 749 mmHg 63%
    19:00 +12°C° 0.2 mm 3 m/S 749 mmHg 69%
    20:00 +10°C° 0.2 mm 4 m/S 749 mmHg 75%
    21:00 +10°C° 0 mm 4 m/S 750 mmHg 75%
    22:00 +8°C° 0 mm 4 m/S 750 mmHg 75%
    23:00 +8°C° 0 mm 5 m/S 751 mmHg 74%

    übermorgen, 22 April, Montag

    Zeit Temperatur Niederschläge Wind Luftdruck Luftfeuchtigkeit
    00:00 +7°C° 0 mm 4 m/S 751 mmHg 74%
    01:00 +7°C° 0 mm 4 m/S 751 mmHg 74%
    02:00 +7°C° 0 mm 3 m/S 752 mmHg 74%
    03:00 +7°C° 0 mm 3 m/S 752 mmHg 75%
    04:00 +5°C° 0 mm 3 m/S 752 mmHg 76%
    05:00 +4°C° 0 mm 3 m/S 753 mmHg 77%
    06:00 +7°C° 0 mm 3 m/S 753 mmHg 69%
    07:00 +7°C° 0 mm 4 m/S 754 mmHg 62%
    08:00 +10°C° 0 mm 4 m/S 754 mmHg 55%
    09:00 +10°C° 0 mm 5 m/S 754 mmHg 49%
    10:00 +13°C° 0 mm 5 m/S 754 mmHg 43%
    11:00 +14°C° 0 mm 5 m/S 755 mmHg 36%
    12:00 +14°C° 0 mm 5 m/S 755 mmHg 37%
    13:00 +14°C° 0 mm 5 m/S 754 mmHg 37%
    14:00 +14°C° 0 mm 5 m/S 754 mmHg 37%
    15:00 +14°C° 0 mm 5 m/S 754 mmHg 38%
    16:00 +14°C° 0 mm 5 m/S 754 mmHg 39%
    17:00 +14°C° 0 mm 5 m/S 754 mmHg 40%
    18:00 +12°C° 0 mm 4 m/S 754 mmHg 46%
    19:00 +11°C° 0 mm 3 m/S 754 mmHg 51%
    20:00 +9°C° 0 mm 3 m/S 754 mmHg 57%
    21:00 +9°C° 0 mm 3 m/S 755 mmHg 60%
    22:00 +8°C° 0 mm 3 m/S 755 mmHg 62%
    23:00 +8°C° 0 mm 3 m/S 755 mmHg 64%

    23 April, Dienstag

    Zeit Temperatur Niederschläge Wind Luftdruck Luftfeuchtigkeit
    00:00 +7°C° 0 mm 3 m/S 755 mmHg 65%
    01:00 +7°C° 0 mm 3 m/S 755 mmHg 66%
    02:00 +7°C° 0 mm 3 m/S 755 mmHg 66%
    03:00 +7°C° 0 mm 3 m/S 755 mmHg 66%
    04:00 +5°C° 0 mm 3 m/S 755 mmHg 66%
    05:00 +5°C° 0 mm 3 m/S 755 mmHg 66%
    06:00 +7°C° 0 mm 4 m/S 756 mmHg 59%
    07:00 +8°C° 0 mm 5 m/S 756 mmHg 52%
    08:00 +10°C° 0 mm 5 m/S 756 mmHg 45%
    09:00 +11°C° 0 mm 6 m/S 756 mmHg 42%
    10:00 +13°C° 0 mm 6 m/S 756 mmHg 39%
    11:00 +15°C° 0 mm 7 m/S 756 mmHg 35%
    12:00 +15°C° 0 mm 7 m/S 755 mmHg 35%
    13:00 +16°C° 0 mm 7 m/S 755 mmHg 35%
    14:00 +16°C° 0 mm 7 m/S 755 mmHg 35%
    15:00 +16°C° 0 mm 6 m/S 754 mmHg 37%
    16:00 +15°C° 0 mm 6 m/S 754 mmHg 39%
    17:00 +15°C° 0 mm 6 m/S 754 mmHg 41%
    18:00 +14°C° 0 mm 5 m/S 754 mmHg 45%
    19:00 +12°C° 0 mm 5 m/S 754 mmHg 49%
    20:00 +11°C° 0 mm 4 m/S 754 mmHg 53%
    21:00 +11°C° 0 mm 4 m/S 754 mmHg 54%
    22:00 +10°C° 0 mm 4 m/S 754 mmHg 56%
    23:00 +10°C° 0 mm 4 m/S 755 mmHg 57%

    24 April, Mittwoch

    Zeit Temperatur Niederschläge Wind Luftdruck Luftfeuchtigkeit
    00:00 +8°C° 0 mm 4 m/S 755 mmHg 58%
    01:00 +8°C° 0 mm 4 m/S 755 mmHg 59%
    02:00 +8°C° 0 mm 4 m/S 755 mmHg 61%
    03:00 +7°C° 0 mm 5 m/S 755 mmHg 61%
    04:00 +7°C° 0 mm 5 m/S 755 mmHg 62%
    05:00 +7°C° 0 mm 5 m/S 755 mmHg 62%
    06:00 +8°C° 0 mm 6 m/S 755 mmHg 57%
    07:00 +10°C° 0 mm 6 m/S 755 mmHg 51%
    08:00 +11°C° 0 mm 7 m/S 755 mmHg 46%
    09:00 +12°C° 0 mm 7 m/S 755 mmHg 43%
    10:00 +15°C° 0 mm 7 m/S 755 mmHg 40%
    11:00 +16°C° 0 mm 8 m/S 755 mmHg 37%
    12:00 +16°C° 0 mm 7 m/S 755 mmHg 37%
    13:00 +17°C° 0 mm 7 m/S 755 mmHg 36%
    14:00 +18°C° 0 mm 7 m/S 755 mmHg 35%
    15:00 +17°C° 0 mm 7 m/S 755 mmHg 36%
    16:00 +17°C° 0 mm 6 m/S 754 mmHg 37%
    17:00 +17°C° 0 mm 6 m/S 754 mmHg 37%
    18:00 +15°C° 0 mm 5 m/S 754 mmHg 42%
    19:00 +14°C° 0 mm 4 m/S 755 mmHg 46%
    20:00 +13°C° 0 mm 4 m/S 755 mmHg 50%
    21:00 +12°C° 0 mm 4 m/S 755 mmHg 51%
    22:00 +12°C° 0 mm 4 m/S 755 mmHg 52%
    23:00 +12°C° 0 mm 4 m/S 755 mmHg 54%

    25 April, Donnerstag

    Zeit Temperatur Niederschläge Wind Luftdruck Luftfeuchtigkeit
    00:00 +12°C° 0.1 mm 4 m/S 755 mmHg 56%
    01:00 +12°C° 0.1 mm 4 m/S 755 mmHg 59%
    02:00 +12°C° 0.1 mm 4 m/S 755 mmHg 61%
    03:00 +11°C° 0 mm 4 m/S 755 mmHg 62%
    04:00 +11°C° 0 mm 4 m/S 755 mmHg 63%
    05:00 +10°C° 0 mm 4 m/S 755 mmHg 65%
    06:00 +10°C° 0 mm 5 m/S 755 mmHg 61%
    07:00 +12°C° 0 mm 5 m/S 756 mmHg 58%
    08:00 +13°C° 0 mm 6 m/S 756 mmHg 55%
    09:00 +15°C° 0 mm 6 m/S 756 mmHg 51%
    10:00 +16°C° 0 mm 6 m/S 755 mmHg 47%
    11:00 +17°C° 0 mm 7 m/S 755 mmHg 43%
    12:00 +18°C° 0 mm 7 m/S 755 mmHg 41%
    13:00 +20°C° 0 mm 7 m/S 755 mmHg 39%
    14:00 +21°C° 0 mm 6 m/S 754 mmHg 38%
    15:00 +20°C° 0 mm 6 m/S 754 mmHg 39%
    16:00 +20°C° 0 mm 6 m/S 754 mmHg 40%
    17:00 +20°C° 0 mm 6 m/S 753 mmHg 41%
    18:00 +17°C° 0 mm 5 m/S 753 mmHg 46%
    19:00 +17°C° 0 mm 4 m/S 753 mmHg 50%
    20:00 +14°C° 0 mm 4 m/S 753 mmHg 55%
    21:00 +14°C° 0 mm 4 m/S 753 mmHg 55%
    22:00 +13°C° 0 mm 4 m/S 753 mmHg 55%
    23:00 +12°C° 0 mm 4 m/S 753 mmHg 56%
    Mehr zeigen